Weather Roundup
Issued by NWS

Home | Current Version | Previous Version | Graphics & Text | Print | Product List | Glossary Off
Versions: 1 2 3 4 5 6 7 8 9 10 11 12 13 14 15 16 17 18 19 20 21 22 23 24 25 26 27 28 29 30 31 32 33 34 35 36 37 38 39 40 41 42 43 44 45 46 47 48 49 50

000
NZUS93 KARX 242110
HRRWXR

CURRENT HOURLY OBSERVATIONS ACROSS
MUCH OF THE UPPER MISSISSIPPI VALLEY
NATIONAL WEATHER SERVICE LA CROSSE WI
400 PM CDT MON APR 24 2017


...SOUTHEAST MINNESOTA...


CITY           SKY/WX    TMP DP  RH WIND       PRES   REMARKS
ROCHESTER      CLOUDY    68  30  24 S26G36    29.65F
ROCHESTER/MAYO FAIR      68  29  23 SE21G31   29.66F
WINONA         CLOUDY    72  32  23 S14G22    29.68F
AUSTIN         PTSUNNY   70  27  19 S20G28    29.64F
ALBERT LEA     CLOUDY    68  19  15 S21G30    29.61F
DODGE CENTER   CLOUDY    66  28  24 SE24G35   29.64F
PRESTON        CLOUDY    69  30  23 S24G30    29.68F
OWATONNA       CLOUDY    68  25  19 S21G26    29.62F
FARIBAULT      CLOUDY    68  30  24 S23G30    29.63F
$$

...ELSEWHERE IN MINNESOTA...


CITY           SKY/WX    TMP DP  RH WIND       PRES   REMARKS
MINNEAPOLIS    CLOUDY    70  27  20 S18G29    29.61F
INTNL FALLS    CLOUDY    38  32  79 E13G23    29.66F WCI  30
DULUTH         CLOUDY    39  31  72 E17G30    29.70F WCI  30
RED WING       CLOUDY    72  23  16 S17G23    29.63F
REDWOOD FALLS  CLOUDY    62  39  42 SW9       29.56F
MANKATO        CLOUDY    68  28  22 S14       29.60S
WORTHINGTON    CLOUDY    66  36  32 S21G36    29.55F
FAIRMONT       CLOUDY    69  27  20 S22G35    29.58F
$$

...SOUTHWEST WISCONSIN...


CITY           SKY/WX    TMP DP  RH WIND       PRES   REMARKS
LA CROSSE      MOSUNNY   72  29  20 S20G30    29.69F
PRAIRIE DU CHI MOSUNNY   73  26  17 SE10G20   29.73F
BOSCOBEL       CLOUDY    74  29  19 VRB7      29.75F
LONE ROCK      CLOUDY    72  32  23 S14G22    29.77F
PLATTEVILLE    MOSUNNY   72  31  21 SE18      29.78F
FORT MC COY    CLOUDY    72  29  20 S20G26    29.74F
CAMP DOUGLAS   CLOUDY    72  30  21 SE18G26   29.75F
MAUSTON-NEW LI PTCLDY    71  29  21 S16G25    29.76F
VIROQUA        FAIR      70  29  21 S14G23    29.75F
WIS DELLS      CLOUDY    70  27  20 S17G26    29.78F
$$

...ELSEWHERE IN WISCONSIN...


CITY           SKY/WX    TMP DP  RH WIND       PRES   REMARKS
MILWAUKEE      CLOUDY    64  33  31 SE13      29.88F
MADISON        PTSUNNY   70  29  21 S15       29.80F
GREEN BAY      CLOUDY    68  42  38 S15G21    29.85F
EAU CLAIRE     CLOUDY    68  28  22 S18G26    29.68F
BLACK RVR FLS  FAIR      73  22  15 S13G23    29.73F
MEDFORD        CLOUDY    63  33  32 S20       29.76F
WAUSAU         MOSUNNY   66  31  27 S17G28    29.77F
WIS RAPIDS     NOT AVBL
MARSHFIELD     CLOUDY    67  32  27 S16       29.76F
RICE LAKE      CLOUDY    68  32  26 SE21G26   29.70F
$$

...NORTHEAST IOWA...


CITY           SKY/WX    TMP DP  RH WIND       PRES   REMARKS
WATERLOO       CLOUDY    73  27  18 S21G31    29.66F
DUBUQUE        CLOUDY    70  28  21 S17G30    29.77F
DECORAH        MOSUNNY   70  27  19 S15G26    29.69F
MASON CITY     CLOUDY    71  26  18 S28G36    29.63F
CHARLES CITY   CLOUDY    72  27  18 S22G31    29.65F
OELWEIN        PTSUNNY   72  27  18 S23G31    29.70F
$$

...ELSEWHERE IN IOWA...


CITY           SKY/WX    TMP DP  RH WIND       PRES   REMARKS
DES MOINES     CLOUDY    75  30  19 S24G37    29.62F
IOWA CITY      CLOUDY    76  32  20 S18G25    29.74F
FORT DODGE     PTSUNNY   70  28  21 S15G31    29.61F
MARSHALLTOWN   SUNNY     74  27  17 S25G36    29.64F
CEDAR RAPIDS   SUNNY     75  28  17 SE20G29   29.72F
$$

...NORTHERN ILLINOIS...


CITY           SKY/WX    TMP DP  RH WIND       PRES   REMARKS
CHICAGO-OHARE  PTSUNNY   72  30  21 E13       29.84F
CHICAGO-MIDWAY PTSUNNY   71  33  24 E12       29.85F
MOLINE         MOSUNNY   77  27  15 S10G23    29.75F
ROCKFORD       CLOUDY    74  28  18 S12       29.82F
PEORIA         SUNNY     77  25  14 SE12      29.78F
$$

NOTE: "FAIR" INDICATES FEW OR NO CLOUDS BELOW 12,000 FEET WITH NO
SIGNIFICANT WEATHER AND/OR OBSTRUCTIONS TO VISIBILITY. WIND
SPEEDS ARE IN MILES-PER-HOUR.




USA.gov is the U.S. government's official web portal to all federal, state and local government web resources and services.